This is the latest recevied weather packets stored in our database for station/object EA3DJ-10. If no packets are shown the sender has not sent any weather packets the latest 10 day(s).
| Time | Temp. | Humidity | Pressure | Rain* | Wind** | Luminosity | Snow |
|---|---|---|---|---|---|---|---|
| 1777305983 | 23.33° C | 45% | 1018.9 hPa | - | - | - | - |
| 1777304783 | 23.33° C | 45% | 1019 hPa | - | - | - | - |
| 1777303583 | 23.33° C | 46% | 1018.9 hPa | - | - | - | - |
| 1777302383 | 23.89° C | 46% | 1019 hPa | - | - | - | - |
| 1777301183 | 23.89° C | 45% | 1018.9 hPa | - | - | - | - |
| 1777299983 | 23.89° C | 46% | 1019 hPa | - | - | - | - |
| 1777298783 | 23.89° C | 45% | 1019.2 hPa | - | - | - | - |
| 1777297583 | 24.44° C | 45% | 1019.5 hPa | - | - | - | - |
| 1777296382 | 23.89° C | 45% | 1019.7 hPa | - | - | - | - |
| 1777295182 | 23.89° C | 45% | 1019.9 hPa | - | - | - | - |
| 1777293982 | 23.89° C | 45% | 1019.8 hPa | - | - | - | - |
| 1777292782 | 23.89° C | 45% | 1020.1 hPa | - | - | - | - |
| 1777291582 | 23.89° C | 45% | 1020.2 hPa | - | - | - | - |
| 1777290382 | 23.89° C | 46% | 1020.3 hPa | - | - | - | - |
| 1777289182 | 23.33° C | 46% | 1020.5 hPa | - | - | - | - |
| 1777287982 | 23.33° C | 46% | 1020.8 hPa | - | - | - | - |
| 1777286781 | 23.33° C | 47% | 1020.9 hPa | - | - | - | - |
| 1777285581 | 23.33° C | 47% | 1020.7 hPa | - | - | - | - |
| 1777284381 | 23.33° C | 47% | 1020.7 hPa | - | - | - | - |
| 1777283181 | 23.33° C | 46% | 1020.9 hPa | - | - | - | - |
| 1777281981 | 23.33° C | 46% | 1020.8 hPa | - | - | - | - |
| 1777280781 | 23.33° C | 47% | 1020.8 hPa | - | - | - | - |
| 1777279581 | 23.33° C | 47% | 1020.9 hPa | - | - | - | - |
| 1777278381 | 22.78° C | 46% | 1020.7 hPa | - | - | - | - |
| 1777277181 | 22.78° C | 46% | 1020.6 hPa | - | - | - | - |
* Rain since midnight (hover to see other rain measurements)
** Current wind speed in m/s (hover to see current wind gust speed)